TimeMST,TemperatureF,Dew PointF,Humidity,Sea Level PressureIn,VisibilityMPH,Wind Direction,Wind SpeedMPH,Gust SpeedMPH,PrecipitationIn,Events,Conditions,WindDirDegrees,DateUTC
12:15 AM,25.7,21.2,83,30.15,10.0,WSW,4.6,-,N/A,,Clear,240,2013-01-18 07:15:00
12:35 AM,25.9,21.6,84,30.14,10.0,West,6.9,-,N/A,,Clear,260,2013-01-18 07:35:00
12:55 AM,24.8,21.2,86,30.14,10.0,WSW,5.8,-,N/A,,Clear,250,2013-01-18 07:55:00
1:15 AM,24.6,21.4,87,30.13,10.0,WSW,5.8,-,N/A,,Clear,240,2013-01-18 08:15:00
1:35 AM,26.4,22.5,85,30.13,10.0,West,5.8,-,N/A,,Clear,270,2013-01-18 08:35:00
1:55 AM,23.4,19.8,86,30.13,10.0,Calm,Calm,-,N/A,,Clear,0,2013-01-18 08:55:00
2:15 AM,25.7,21.9,86,30.13,10.0,Calm,Calm,-,N/A,,Clear,0,2013-01-18 09:15:00
2:35 AM,23.0,19.4,86,30.12,10.0,Calm,Calm,-,N/A,,Clear,0,2013-01-18 09:35:00
2:55 AM,22.8,19.4,87,30.11,10.0,West,6.9,-,N/A,,Clear,260,2013-01-18 09:55:00
3:15 AM,23.5,19.4,84,30.11,10.0,West,8.1,-,N/A,,Clear,260,2013-01-18 10:15:00
3:35 AM,22.6,19.4,87,30.09,10.0,WSW,5.8,-,N/A,,Clear,240,2013-01-18 10:35:00
3:55 AM,24.1,20.1,85,30.08,10.0,West,3.5,-,N/A,,Clear,260,2013-01-18 10:55:00
4:15 AM,23.5,19.2,84,30.08,10.0,West,4.6,-,N/A,,Clear,270,2013-01-18 11:15:00
4:35 AM,23.2,18.7,83,30.08,10.0,West,8.1,-,N/A,,Clear,280,2013-01-18 11:35:00
4:55 AM,27.5,21.2,77,30.07,10.0,West,11.5,-,N/A,,Clear,270,2013-01-18 11:55:00
5:15 AM,25.2,19.9,81,30.07,10.0,West,13.8,-,N/A,,Clear,270,2013-01-18 12:15:00
5:35 AM,25.5,19.8,79,30.07,10.0,West,11.5,-,N/A,,Clear,270,2013-01-18 12:35:00
5:55 AM,25.3,19.0,77,30.07,10.0,West,9.2,-,N/A,,Clear,260,2013-01-18 12:55:00
6:15 AM,23.7,18.0,79,30.07,10.0,West,6.9,-,N/A,,Clear,260,2013-01-18 13:15:00
6:35 AM,23.9,18.1,79,30.07,10.0,West,9.2,-,N/A,,Clear,260,2013-01-18 13:35:00
6:55 AM,23.4,17.8,79,30.07,10.0,West,8.1,-,N/A,,Clear,260,2013-01-18 13:55:00
7:15 AM,23.2,18.5,82,30.07,10.0,West,8.1,-,N/A,,Clear,260,2013-01-18 14:15:00
7:35 AM,22.8,18.0,82,30.07,10.0,West,11.5,-,N/A,,Clear,260,2013-01-18 14:35:00
7:55 AM,23.9,18.9,81,30.08,10.0,West,10.4,-,N/A,,Clear,260,2013-01-18 14:55:00
8:15 AM,26.2,19.9,77,30.09,10.0,West,6.9,-,N/A,,Clear,260,2013-01-18 15:15:00
8:35 AM,27.7,20.7,75,30.08,10.0,WSW,11.5,-,N/A,,Clear,240,2013-01-18 15:35:00
8:55 AM,29.8,22.6,75,30.09,10.0,WSW,9.2,-,N/A,,Clear,250,2013-01-18 15:55:00
9:15 AM,32.0,23.7,71,30.09,10.0,WSW,10.4,-,N/A,,Clear,250,2013-01-18 16:15:00
9:35 AM,33.8,24.3,68,30.09,10.0,WSW,10.4,-,N/A,,Clear,240,2013-01-18 16:35:00
9:55 AM,34.9,24.1,65,30.09,10.0,WSW,8.1,-,N/A,,Clear,250,2013-01-18 16:55:00
10:15 AM,38.1,25.7,61,30.08,10.0,WSW,8.1,-,N/A,,Clear,240,2013-01-18 17:15:00
10:35 AM,44.6,25.0,46,30.07,10.0,West,12.7,-,N/A,,Clear,260,2013-01-18 17:35:00
10:55 AM,48.4,23.5,38,30.06,10.0,West,11.5,-,N/A,,Clear,270,2013-01-18 17:55:00
11:15 AM,51.4,17.2,26,30.04,10.0,WNW,17.3,-,N/A,,Clear,290,2013-01-18 18:15:00
11:35 AM,53.6,16.5,23,30.03,10.0,NW,17.3,-,N/A,,Clear,310,2013-01-18 18:35:00
11:55 AM,54.0,15.6,22,30.01,10.0,WNW,19.6,27.6,N/A,,Clear,300,2013-01-18 18:55:00
12:15 PM,55.0,15.6,21,30.00,10.0,NW,18.4,25.3,N/A,,Clear,310,2013-01-18 19:15:00
12:35 PM,55.9,14.9,20,30.00,10.0,NW,18.4,24.2,N/A,,Clear,310,2013-01-18 19:35:00
12:55 PM,56.5,14.0,19,29.99,10.0,NW,18.4,24.2,N/A,,Clear,310,2013-01-18 19:55:00
1:15 PM,57.6,14.7,19,29.99,10.0,NW,16.1,23.0,N/A,,Clear,310,2013-01-18 20:15:00
1:35 PM,57.7,14.7,18,29.99,10.0,WNW,13.8,23.0,N/A,,Clear,300,2013-01-18 20:35:00
1:55 PM,58.3,14.7,18,29.99,10.0,WNW,11.5,-,N/A,,Clear,300,2013-01-18 20:55:00
2:15 PM,58.1,14.7,18,29.98,10.0,West,11.5,-,N/A,,Clear,280,2013-01-18 21:15:00
2:35 PM,57.7,15.1,19,29.98,10.0,West,11.5,-,N/A,,Clear,280,2013-01-18 21:35:00
2:55 PM,57.6,15.1,19,29.98,10.0,West,10.4,-,N/A,,Clear,280,2013-01-18 21:55:00
3:15 PM,57.6,16.3,20,29.97,10.0,West,4.6,-,N/A,,Clear,280,2013-01-18 22:15:00
3:35 PM,57.7,12.4,17,29.97,10.0,WNW,5.8,-,N/A,,Clear,300,2013-01-18 22:35:00
3:55 PM,55.6,16.7,22,29.97,10.0,West,5.8,-,N/A,,Clear,270,2013-01-18 22:55:00
4:15 PM,51.8,16.5,25,29.98,10.0,West,5.8,-,N/A,,Clear,260,2013-01-18 23:15:00
4:35 PM,49.3,17.1,28,29.97,10.0,WNW,10.4,-,N/A,,Clear,290,2013-01-18 23:35:00
4:55 PM,43.5,15.8,33,29.97,10.0,Calm,Calm,-,N/A,,Clear,0,2013-01-18 23:55:00
5:15 PM,44.1,15.6,32,29.97,10.0,Calm,Calm,-,N/A,,Clear,0,2013-01-19 00:15:00
5:35 PM,37.4,16.2,42,29.97,10.0,Calm,Calm,-,N/A,,Clear,0,2013-01-19 00:35:00
5:55 PM,38.3,17.1,42,29.97,10.0,WNW,3.5,-,N/A,,Clear,290,2013-01-19 00:55:00
6:15 PM,39.2,17.1,41,29.97,10.0,Calm,Calm,-,N/A,,Clear,0,2013-01-19 01:15:00
6:35 PM,41.4,16.9,37,29.97,10.0,Calm,Calm,-,N/A,,Clear,0,2013-01-19 01:35:00
6:55 PM,42.1,17.2,37,29.97,10.0,Calm,Calm,-,N/A,,Clear,0,2013-01-19 01:55:00
7:15 PM,40.8,17.6,39,29.97,10.0,WNW,4.6,-,N/A,,Clear,300,2013-01-19 02:15:00
7:35 PM,42.6,17.2,36,29.96,10.0,Calm,Calm,-,N/A,,Clear,0,2013-01-19 02:35:00
7:55 PM,36.5,18.9,49,29.96,10.0,Calm,Calm,-,N/A,,Clear,0,2013-01-19 02:55:00
8:15 PM,38.5,18.3,44,29.97,10.0,WSW,5.8,-,N/A,,Clear,250,2013-01-19 03:15:00
8:35 PM,40.8,17.4,39,29.97,10.0,WNW,9.2,-,N/A,,Clear,290,2013-01-19 03:35:00
8:55 PM,36.0,19.8,52,29.97,10.0,West,8.1,-,N/A,,Clear,270,2013-01-19 03:55:00
9:15 PM,33.6,21.2,60,29.97,10.0,West,11.5,-,N/A,,Clear,270,2013-01-19 04:15:00
9:35 PM,37.6,20.8,51,29.96,10.0,West,11.5,-,N/A,,Clear,270,2013-01-19 04:35:00
9:55 PM,34.5,21.2,58,29.97,10.0,West,9.2,-,N/A,,Clear,260,2013-01-19 04:55:00
10:15 PM,32.4,20.7,62,29.97,10.0,WSW,11.5,-,N/A,,Clear,250,2013-01-19 05:15:00
10:35 PM,33.8,21.2,60,29.97,10.0,West,10.4,-,N/A,,Clear,270,2013-01-19 05:35:00
10:55 PM,33.3,20.7,60,29.97,10.0,WNW,3.5,-,N/A,,Clear,290,2013-01-19 05:55:00
11:15 PM,36.1,19.2,50,29.97,10.0,Calm,Calm,-,N/A,,Clear,0,2013-01-19 06:15:00
11:35 PM,33.4,20.3,59,29.97,10.0,West,6.9,-,N/A,,Clear,270,2013-01-19 06:35:00
11:55 PM,34.2,19.8,56,29.97,10.0,West,5.8,-,N/A,,Clear,260,2013-01-19 06:55:00